Theta_e
298 297 297 297 297 297 297 297 297 297 297 297 297 297 297 296 295 295 295 294 295 296 298 300 302 303 304 304 306 306 307 307 309 309 309 310 311 312 312 313 314 314 316
297 297 297 297 297 297 297 297 297 297 297 297 297 297 297 296 295 295 295 294 294 293 294 294 298 301 303 303 304 305 306 307 309 309 310 311 311 311 311 312 313 313 314
297 297 297 297 297 296 296 297 297 297 297 297 297 297 297 296 296 296 295 295 295 295 294 294 294 299 300 302 303 304 305 306 307 308 307 309 310 311 312 312 312 312 313
297 297 297 296 296 296 296 296 296 297 297 297 297 297 296 296 295 295 295 295 295 295 295 294 295 295 297 301 302 303 303 303 305 306 307 308 308 309 310 311 311 312 312
297 297 296 296 296 296 296 296 296 296 297 296 297 297 296 296 295 295 295 295 295 295 295 295 295 296 296 298 300 301 303 304 304 306 307 308 308 308 310 310 310 311 312
297 297 296 296 296 295 295 296 296 295 296 296 297 297 297 296 295 295 295 295 295 295 295 295 295 295 296 295 296 296 301 303 305 305 306 308 308 309 309 311 310 311 311
297 297 296 296 296 296 295 296 296 296 296 297 297 298 297 296 295 295 294 294 295 295 295 295 295 295 295 295 296 295 298 300 303 305 306 307 307 308 310 310 313 313 314
297 297 296 296 296 296 295 295 295 295 295 296 295 296 296 296 295 295 294 294 294 294 295 294 295 295 295 295 295 295 296 299 302 302 305 306 307 308 309 309 310 310 311
297 297 296 296 296 296 295 295 295 295 295 295 295 295 296 296 294 294 294 294 293 294 294 294 294 294 294 294 295 295 295 298 300 300 302 304 307 308 307 309 311 310 312
297 297 296 296 296 296 295 295 295 295 294 294 295 295 295 295 295 295 295 294 293 293 294 293 293 293 293 293 293 295 295 296 297 298 300 303 304 307 307 308 309 310 312
297 297 296 296 296 296 295 295 295 295 294 294 294 295 295 295 295 294 295 294 293 294 293 294 294 293 293 292 293 294 294 295 295 297 299 301 304 305 306 306 307 310 311
297 297 296 296 296 296 295 295 295 295 294 294 294 294 295 295 295 295 294 294 294 294 293 294 294 294 293 293 292 292 293 294 294 295 299 301 303 304 304 305 306 308 309
297 297 296 296 296 296 296 295 295 295 294 294 294 294 295 295 295 296 295 294 294 294 294 295 294 294 293 293 292 292 292 293 293 295 298 301 302 303 304 304 305 306 307
297 297 296 296 296 296 296 295 295 295 294 294 293 293 294 294 294 295 296 294 293 294 294 294 294 294 293 292 292 292 292 292 293 295 297 300 301 301 302 303 303 304 306
297 297 297 296 296 296 296 295 295 295 294 294 293 293 294 294 294 293 295 293 293 293 293 294 295 294 293 292 291 291 292 291 292 294 296 299 299 301 301 301 302 303 304
297 297 297 296 296 296 296 295 295 295 294 294 293 293 294 294 293 293 295 293 292 294 293 294 294 294 293 291 290 290 291 291 292 294 295 297 298 300 300 300 301 302 303
299 297 297 297 296 296 296 296 295 295 294 294 293 293 293 293 293 293 294 293 292 294 294 294 295 294 292 292 291 290 290 291 292 292 294 295 297 299 298 299 300 302 302
299 298 297 297 297 296 296 296 295 295 294 294 294 293 293 293 293 294 294 293 292 294 294 294 294 294 293 292 291 291 291 291 292 291 292 295 296 296 297 296 299 300 301
299 299 298 297 297 296 296 296 295 295 294 294 294 293 293 293 293 294 295 294 293 292 294 294 293 293 293 292 291 291 291 290 291 291 292 293 293 294 294 295 298 299 300
299 299 299 297 297 297 296 296 296 295 294 294 294 293 293 293 294 293 295 295 293 292 294 294 293 293 292 292 291 291 291 291 291 290 291 292 292 292 293 293 295 296 298
300 299 299 299 297 297 297 296 296 296 295 294 294 293 294 294 294 293 296 296 293 293 294 293 293 293 291 292 291 291 291 291 292 290 290 291 291 291 292 292 294 294 296
300 299 299 299 299 297 297 297 296 296 296 295 294 294 294 294 294 293 294 294 293 295 292 290 292 292 291 291 292 291 291 290 291 290 290 290 291 291 292 292 293 294 295
300 300 299 299 299 299 297 297 296 296 296 296 294 294 294 294 294 293 294 294 293 292 291 290 290 290 291 292 293 292 291 290 290 290 290 290 291 290 291 291 291 291 293
301 300 300 299 299 299 298 297 296 296 296 296 295 294 294 294 294 294 294 293 293 293 291 290 290 291 292 293 294 291 291 290 290 291 290 290 290 290 290 290 290 290 290
301 300 300 300 299 299 299 298 296 296 296 296 296 295 294 295 295 294 293 293 293 293 291 291 290 290 291 292 291 290 291 290 290 290 290 290 290 290 289 290 290 290 291
301 301 300 300 300 299 298 298 297 296 296 296 296 295 294 295 295 294 293 292 292 292 291 291 290 290 291 291 290 290 290 290 290 290 290 290 290 289 290 289 290 291 290
Wind_Speed
9 10 11 12 14 15 16 16 17 18 19 20 21 22 21 20 20 20 18 15 14 13 13 13 14 15 16 17 18 19 20 21 19 20 20 20 20 21 21 22 21 23 22
7 9 10 12 13 15 16 16 17 18 19 20 20 21 19 18 18 19 20 19 18 16 16 16 15 15 16 17 18 20 19 19 18 18 19 20 20 22 22 23 23 24 26
7 9 10 11 13 13 14 14 15 16 17 18 20 19 16 13 17 20 19 20 20 19 18 17 17 15 16 16 17 17 18 19 19 21 20 20 22 21 22 24 24 26 27
7 8 9 10 11 11 12 13 13 13 14 16 16 15 10 9 16 16 18 20 21 21 20 18 18 18 17 16 17 18 20 20 20 21 21 22 23 25 25 25 26 28 29
7 8 8 9 10 11 12 12 12 13 15 16 16 17 9 10 10 15 17 18 21 21 21 19 18 19 19 18 18 20 20 20 19 19 20 21 22 24 26 28 30 31 31
8 8 9 9 10 10 11 12 12 14 17 18 17 17 13 10 7 11 15 18 21 21 20 20 19 19 19 19 20 20 20 20 20 18 20 22 24 24 27 30 33 34 34
10 9 9 9 9 10 11 12 13 13 15 17 17 17 15 12 8 10 13 20 23 23 20 19 19 21 22 20 20 20 20 19 18 23 21 23 25 26 28 30 31 32 33
11 11 10 10 10 10 11 12 12 14 15 17 16 14 10 14 15 5 16 21 23 24 21 18 17 19 21 21 21 21 20 15 23 23 24 25 25 26 28 29 28 25 25
13 12 11 11 11 11 11 12 13 14 15 14 14 9 5 5 24 17 18 24 24 24 23 23 20 19 21 23 23 22 20 15 25 24 24 26 28 29 29 28 25 26 29
14 14 13 12 12 12 11 11 12 13 14 14 14 11 11 12 7 14 21 24 28 25 24 24 24 25 25 24 23 22 22 23 25 25 24 27 29 32 31 30 27 27 29
15 15 14 14 13 13 12 11 11 12 13 14 14 14 14 15 14 16 23 27 26 22 23 23 24 26 27 26 24 25 25 24 24 23 25 22 30 33 29 31 29 29 32
17 16 15 15 14 14 13 13 12 12 13 14 14 14 14 15 17 20 20 24 25 24 25 22 23 27 29 29 27 25 24 26 24 22 21 19 24 32 29 31 31 34 33
18 16 17 16 15 14 14 14 13 13 14 15 15 16 16 15 17 20 23 25 23 26 19 19 23 28 26 28 31 28 25 24 20 19 17 19 20 28 30 31 29 31 30
18 18 18 17 16 15 15 15 14 14 14 15 16 16 17 16 17 19 20 22 26 20 20 26 24 25 27 30 30 25 25 21 17 14 14 18 19 25 29 31 31 32 34
20 20 20 19 17 17 16 16 15 14 16 16 16 17 17 17 18 18 18 18 19 19 29 27 30 26 27 27 25 21 23 19 15 12 15 16 18 21 24 27 30 32 33
21 22 21 20 18 18 17 17 17 15 17 16 17 17 17 17 18 17 17 17 17 18 23 26 30 26 28 26 24 21 20 16 13 11 14 14 15 20 22 24 25 30 33
23 23 22 21 20 19 18 19 18 17 17 17 17 18 17 17 18 16 15 16 14 14 23 28 23 24 26 24 25 22 20 16 14 14 11 11 11 15 20 22 22 23 29
25 24 24 24 22 21 19 20 19 18 18 17 17 18 17 17 16 14 15 15 14 13 20 24 24 25 23 22 25 25 22 14 12 14 12 8 8 13 17 20 18 20 24
27 26 26 26 24 21 21 20 20 19 19 18 17 18 17 17 16 14 14 15 15 17 16 22 25 23 21 20 24 24 23 17 8 11 8 9 11 11 16 16 13 18 21
29 29 28 26 25 23 23 22 21 20 20 19 18 18 17 17 16 15 14 14 16 17 16 18 20 20 21 18 19 27 24 18 9 10 8 9 13 14 13 12 18 14 17
30 30 29 28 27 26 25 23 22 21 21 20 19 18 17 16 16 16 14 17 17 16 16 18 17 18 21 18 22 26 28 20 12 19 14 15 15 14 15 13 19 20 15
31 32 32 31 29 28 25 24 23 23 21 21 19 18 17 16 16 16 15 16 17 14 16 17 15 16 18 17 19 23 25 28 20 17 15 15 11 14 16 17 17 17 18
32 33 33 33 32 29 26 25 24 25 23 22 20 18 17 16 16 16 16 16 16 15 15 16 16 16 17 13 19 21 21 21 18 17 16 18 11 12 17 18 16 16 17
33 33 33 33 33 30 28 26 25 26 25 23 21 19 18 16 16 16 16 16 15 14 13 13 13 12 14 13 17 16 18 18 15 14 19 13 15 11 17 18 18 18 17
31 33 33 32 33 32 28 28 27 28 27 25 22 20 19 17 15 16 17 16 15 12 13 12 11 11 12 12 14 13 14 16 18 12 19 16 18 11 8 16 18 18 20
29 29 31 32 31 31 29 29 28 29 28 26 23 22 20 17 15 15 17 15 15 11 12 11 11 10 10 10 11 11 12 13 15 9 17 18 18 20 7 15 17 16 15
Wind_Direction
11 12 15 12 14 15 16 14 12 12 11 7 2 1 356 353 355 353 352 348 338 328 320 326 330 325 321 315 313 313 310 306 309 309 302 304 296 295 291 278 279 273 268
3 9 10 11 11 10 10 8 5 6 6 3 358 357 352 354 360 357 354 350 346 337 328 324 327 328 322 315 313 314 312 308 303 302 304 300 297 294 293 285 279 278 273
354 1 2 6 8 7 5 1 3 1 2 2 357 352 344 353 359 353 352 352 349 346 340 337 333 332 328 328 321 319 318 304 298 298 299 296 296 292 291 288 286 283 276
341 347 354 359 359 0 5 1 1 358 360 2 359 355 349 352 5 353 352 346 348 348 346 342 337 333 332 330 324 321 320 316 306 295 293 294 296 294 290 285 283 283 279
323 332 341 346 350 354 358 2 1 355 357 1 3 2 0 354 353 354 354 351 350 346 342 338 332 329 328 328 326 322 320 319 312 303 300 297 296 297 293 289 282 280 276
311 319 327 330 336 346 349 354 357 358 354 357 1 1 358 356 7 354 6 358 354 349 342 334 328 326 326 325 322 318 324 318 317 311 305 302 301 296 295 290 283 279 275
297 307 308 314 322 337 340 345 350 353 352 355 355 356 348 351 304 8 356 360 357 355 346 335 326 324 324 319 318 320 318 321 321 318 309 310 310 304 303 295 286 278 274
284 291 293 303 313 326 331 337 341 343 349 351 354 353 344 342 332 239 349 356 355 355 348 342 325 318 320 319 317 319 320 317 325 320 319 319 316 316 308 307 288 280 279
273 279 285 294 302 311 321 328 332 334 336 343 349 349 333 314 334 331 338 346 350 354 351 347 338 324 317 315 316 316 323 321 324 322 318 320 323 324 322 317 299 281 286
270 274 279 285 291 298 305 313 319 323 327 332 335 333 327 316 316 319 326 329 343 348 355 354 354 345 333 322 313 314 315 325 318 322 321 322 327 332 331 327 316 293 294
267 269 274 279 286 290 296 301 308 314 318 321 321 323 319 319 319 312 313 325 334 335 349 354 351 349 345 338 323 317 321 319 322 319 321 317 331 338 334 334 325 316 305
265 267 271 275 279 285 291 295 300 306 308 312 312 309 314 311 312 312 307 317 321 333 334 348 349 348 345 341 334 320 320 314 318 318 315 315 326 341 336 339 337 332 317
263 267 267 269 272 279 284 290 295 299 301 305 306 302 302 311 306 310 308 315 314 324 327 332 337 347 345 339 336 334 321 319 318 315 317 322 318 332 334 338 338 338 332
260 259 264 267 269 273 278 284 290 294 295 300 302 301 297 304 306 308 306 312 316 315 321 328 334 344 340 336 332 332 328 330 322 324 327 313 320 327 330 335 344 351 349
256 257 260 263 266 269 273 278 286 290 290 296 299 299 296 301 303 305 306 310 307 308 319 332 331 332 336 335 336 332 332 332 334 331 335 315 328 338 334 342 349 354 353
255 255 258 261 262 266 269 274 281 285 287 293 295 297 297 302 303 302 303 308 307 305 304 320 328 329 334 340 345 342 344 337 336 337 333 332 344 340 334 347 348 360 4
253 254 256 258 259 262 265 269 277 281 285 289 292 295 297 299 304 301 301 305 303 306 305 314 320 326 335 342 350 352 353 344 338 348 340 349 348 339 335 348 353 355 10
251 254 254 256 257 260 264 268 274 279 282 285 289 291 295 297 304 298 299 305 298 301 300 312 316 323 332 343 353 357 2 348 344 352 353 1 359 330 338 339 352 357 3
250 250 252 254 257 258 262 266 271 275 280 283 286 289 292 294 301 296 296 300 300 292 298 303 310 317 329 341 355 4 5 2 4 351 1 351 343 340 345 352 356 7 6
252 250 252 254 255 255 258 262 268 273 277 281 283 286 288 289 294 294 292 293 301 291 300 301 305 314 330 341 349 357 10 12 22 12 358 348 347 6 1 18 11 8 12
254 253 252 253 254 254 256 260 264 269 273 278 280 283 285 284 287 290 290 287 295 291 294 301 302 310 326 336 353 358 2 8 14 18 2 2 12 18 21 27 19 14 16
256 254 253 253 254 255 257 258 260 265 270 273 276 278 280 281 281 281 273 276 286 281 294 302 303 308 320 332 338 351 354 3 6 3 23 22 36 31 28 25 34 30 30
256 255 254 254 255 257 256 256 258 263 266 270 273 275 276 279 277 280 273 274 279 281 291 298 303 310 309 339 331 339 346 356 360 13 26 31 35 35 33 31 25 22 38
256 256 256 256 256 256 256 255 256 259 264 268 270 272 273 275 274 275 270 273 276 279 290 297 301 307 304 324 314 329 336 345 355 360 11 25 30 44 37 34 32 26 36
256 256 258 257 257 257 255 255 254 256 261 265 267 267 269 271 271 269 268 271 269 276 287 294 301 305 307 303 309 327 333 340 353 0 8 8 11 19 29 24 28 32 32
257 256 256 256 257 257 253 253 253 255 258 262 263 263 264 266 265 264 263 265 265 273 279 284 302 303 304 308 312 320 331 338 346 1 354 2 8 12 10 12 16 23 30